National Oceanic Atmosphere Administration National Weather Service Headquarters National Weather Service Headquarters
NOAA logo WFO Anchorage Scalable transition graphic NWS logo
Transition from title bar to navgation bar   Aviation Weather 08 AKDT 
blankspace Home   |   Mobile   |   Social Media   |   Mesonet   |   Surface Map   |   Radar   |   Submit Storm Reports =16 GMT 

LocalForecast by City, St or Zip Code

spacer

Forecasts/Products
  Public
  Forecast Discussion
    - With Glossary
  Aviation
  Marine
  Hydrology(RFC)
  Rivers & Lakes AHPS
  Ice Desk
  TV Weather
  Fire Weather
  Avalanche
  Travel 511
  Graphical
  xml logo RSS Feeds
  Marine FTPMail

spacer

Data
  Mesonet
  Model Graphics
  Local Model
  Observations
  Marine Obs
  Satellite/Radar
  Vent Factor
  Soaring Index
  Weather Links

spacer

Climate
  PAFC Climate
  Interactive Climate
  PAFC Records
  Local
  National
  More

spacer

Outreach
  About Us
  Community Outreach
  Kids' Page
  Tour/Speaker Request
  Weather Classroom
  Social Media

spacer

Reports
  COOP Observers
  Local Storm Reports
  Spotter Page
  Submit a Storm Report

spacer

Miscellaneous
  Archived Alaska Weather Stories
  Student Career Opportunities
  Research Papers

spacer

Print Friendly/
Low Bandwidth

  Public Forecasts
  Marine Forecasts

spacer

Contact Us
  mailto pafcweb

spacer

Facebook Follow the National Weather Service in Alaska on Twitter
USA.gov is the U.S. government's official web portal to all federal, state and local government web resources and services.


 ICAO ID:   AAWU Graphics

Internet access to TAFs and METAR observations is for planning purposes only. We can not guarantee the timeliness of internet products. Before flying please get a formal pilot briefing (1-800-992-7433) and ALWAYS file a Flight Plan!Pilot briefings are provided to licensed aircraft pilots, ONLY! Others may not use the above number to obtain weather information.

Check out the Key to TAFs and METARs for help with decoding the information.

A 12 hour summary of TAFs can be found here.

PATK TAF
PATK 211357Z 2114/2212  VRB02KT P6SM SCT035 BKN050
      TEMPO 2114/2116 BKN015 OVC050
     FM212100 36004KT P6SM -SHRA SCT035 BKN050 BKN080
     FM220300 35008G15KT P6SM FEW120
     FM220700 36040KT P6SM SKC=


SPECI PATK 211601Z AUTO 00000KT 1 3/4SM +RA BR SCT016 BKN025 OVC042
     07/07 A2961 RMK AO2 P0004 T00720067 TSNO $=
METAR PATK 211553Z AUTO 00000KT 5SM RA BR BKN018 BKN023 OVC029 07/07
 A2961 RMK AO2 RAB18 SLP030 P0006 T00720067 TSNO $=
METAR PATK 211453Z AUTO 00000KT 10SM BKN016 BKN025 OVC042 08/07 A2962
     RMK AO2 RAB04E13B31E50 SLP032 P0010 60013 T00780067 58010
     TSNO $=
PATK 211444Z AUTO 00000KT 3SM -RA BR SCT017 BKN025 OVC042 08/07
A2962=
SPECI PATK 211437Z AUTO 14003KT 1 3/4SM +RA BR FEW017 BKN025 OVC042
     08/07 A2962 RMK AO2 RAB04E13B31 P0001 T00780067 TSNO $=
PATK 211403Z AUTO 00000KT 10SM SCT014 OVC021 08/06 A2963=
METAR PATK 211353Z AUTO 00000KT 10SM BKN014 OVC019 07/06 A2963 RMK AO2
     RAE25 SLP036 P0003 T00720061 TSNO $=
PATK 211304Z AUTO 00000KT 5SM -RA BR BKN013 OVC021 07/06 A2964=
METAR PATK 211253Z AUTO 00000KT 9SM -RA FEW014 OVC019 07/06 A2964 RMK
     AO2 RAB42 SLP040 P0000 T00720056 TSNO $=
PATK 211223Z AUTO 00000KT 10SM BKN019 OVC047 07/06 A2964=
PATK 211201Z AUTO 00000KT 10SM SCT024 BKN046 OVC060 06/05 A2965=


National Weather Service
Anchorage Forecast Office
6930 Sand Lake Road
Anchorage, Ak 99502
(907) 266-5105 M-F/7-5pm
About Us
Career Opportunities
Glossary
Disclaimer
Privacy Policy
Credits
Alaska Weather Information Line:
1-800-472-0391